(914) Palisana
ephemeris date magn radius delta ra dec elong phase
Today17 Jun 202614.12.535 AU2.390 AU10h50m-17°59'86.2°23.6°
Opposition15 Sep 202712.02.038 AU1.205 AU22h07m+38°21'134.2°20.7°
(914) Palisana - 2026-06-17
astro.vanbuitenen.nl


 
-1 year
-1 month
-1 day
Now
+1 day
+1 month
+1 year

The interactive orbit chart above shows the body's path through the solar system and its position at the given date. Green and blue lines are shown perpendicular to the ecliptic plane: Green if the path is above the ecliptic plane, blue if it is below. (Left-click and drag to rotate the view; Right-click and drag to move the view; Use scroll wheel to zoom in our out.)

The orbital elements of Palisana are:

            e (Eccentricity)                : 0.2165104
            a (Semimajor axis)              : 2.4565337
            i (Inclination)                 : 25.21292
            Ω (Longitude of ascending node) : 255.73833
            ω (Argument of perihelion)      : 49.34362
            M (Mean anomaly)                : 271.73200
            Epoch                           : 2026 Jun 09

            L (Longitude of perihelion)     : 302.22986
            B (Latitude of perihelion)      : 18.85438
            P (Orbital period in years)     : 3.85            
        

The light curve chart below shows the estimated development of the minor planet's magnitude.


The all-sky chart below shows the path of the minor planet over the same period as the light curve. The current position is marked yellow.





The following chart shows the path of the minor planet in the next few days. The field of view is optimized for (~10x50) binoculars and finderscopes.




Ephemerides:
Date       Time       RA (2000)    DEC (2000)    delta   radius  elong  phase   PA    magn
2026-06-17 00:00 UT   10 50 29.2   -17 59 23     2.390    2.535   86.2   23.6   116   14.1 
2026-06-17 18:49 UT   10 51 25.7   -17 56 32     2.398    2.533   85.7   23.6   116   14.1 
2026-06-18 00:00 UT   10 51 41.3   -17 55 46     2.400    2.533   85.6   23.6   116   14.1 
2026-06-19 00:00 UT   10 52 54.3   -17 52 19     2.409    2.530   84.9   23.6   117   14.1 
2026-06-20 00:00 UT   10 54 08.1   -17 49 02     2.418    2.528   84.3   23.6   117   14.1 
2026-06-21 00:00 UT   10 55 22.7   -17 45 55     2.428    2.526   83.7   23.6   117   14.1 
2026-06-22 00:00 UT   10 56 38.1   -17 42 58     2.437    2.524   83.0   23.6   117   14.1 
2026-06-23 00:00 UT   10 57 54.2   -17 40 11     2.446    2.521   82.4   23.5   118   14.1 
2026-06-24 00:00 UT   10 59 11.2   -17 37 34     2.455    2.519   81.8   23.5   118   14.1 
2026-06-25 00:00 UT   11 00 28.9   -17 35 07     2.465    2.517   81.1   23.5   118   14.1 
2026-06-26 00:00 UT   11 01 47.3   -17 32 49     2.474    2.514   80.5   23.5   118   14.1 
2026-06-27 00:00 UT   11 03 06.4   -17 30 40     2.483    2.512   79.9   23.5   119   14.2 
2026-06-28 00:00 UT   11 04 26.3   -17 28 41     2.492    2.510   79.2   23.4   119   14.2 
2026-06-29 00:00 UT   11 05 46.9   -17 26 51     2.501    2.507   78.6   23.4   119   14.2 
2026-06-30 00:00 UT   11 07 08.1   -17 25 10     2.511    2.505   78.0   23.4   119   14.2 
2026-07-01 00:00 UT   11 08 30.1   -17 23 39     2.520    2.503   77.4   23.4   119   14.2 
2026-07-02 00:00 UT   11 09 52.7   -17 22 16     2.529    2.501   76.8   23.3   120   14.2 
2026-07-03 00:00 UT   11 11 16.0   -17 21 02     2.538    2.498   76.2   23.3   120   14.2 
2026-07-04 00:00 UT   11 12 40.0   -17 19 57     2.547    2.496   75.6   23.2   120   14.2 
2026-07-05 00:00 UT   11 14 04.6   -17 19 00     2.556    2.494   75.0   23.2   120   14.2 
2026-07-06 00:00 UT   11 15 29.8   -17 18 13     2.565    2.491   74.4   23.1   121   14.2 
2026-07-07 00:00 UT   11 16 55.7   -17 17 33     2.574    2.489   73.8   23.1   121   14.2 
2026-07-08 00:00 UT   11 18 22.2   -17 17 02     2.583    2.486   73.2   23.0   121   14.2 
2026-07-09 00:00 UT   11 19 49.3   -17 16 40     2.592    2.484   72.6   23.0   121   14.2 
2026-07-10 00:00 UT   11 21 17.0   -17 16 25     2.601    2.482   72.0   22.9   121   14.2 
2026-07-11 00:00 UT   11 22 45.4   -17 16 19     2.609    2.479   71.4   22.9   121   14.2 
2026-07-12 00:00 UT   11 24 14.3   -17 16 21     2.618    2.477   70.8   22.8   122   14.2 
2026-07-13 00:00 UT   11 25 43.8   -17 16 30     2.627    2.475   70.2   22.7   122   14.2 


    Terminology:
            
    delta:  distance between minor planet and earth in AU
    radius: distance between minor planet and sun in AU
    magn:   magnitude (brightness) estimate    
    ra:     right ascension in hours (24h = 360deg)
    dec:    declination in degrees
    elong:  elongation in degrees (angle sun-earth-minor planet)    
    phase:  phase angle in degrees (angle sun-minor planet-earth)        
    AU:     Astronomical Unit (mean distance between earth and sun: 149597870.7 km
    

Orbital elements provided by the MPC (Minor Planet Center).
Calculations by a modified version of AAPlus, a C# implementation of the AA+ project by PJ Naughter from the algorithms presented in the book "Astronomical Algorithms" by Jean Meeus.
NGC2000 dso catalog and star labels from VizieR as provided by the Strasbourg astronomical Data Center.
Tycho2 catalog from the ESO archive.